User: anonymous   Login
Location: ????
(33.1659°N, 35.6604°E)
Time: 11:57:31
(UTC+00:00)
Language:

Cosmos 1378 - Orbit

View from above orbital plane
View from above orbital plane
View from above satellite
View from above satellite

Ground track
Ground track

The orbit data is extracted from the following two-line orbital elements,

1 13271U 82059A   19316.88063460 +.00000810 +00000-0 +33312-4 0  9998
2 13271 082.4679 050.9470 0008650 100.0676 260.1536 15.22668682043394
Epoch (UTC): 12 November 2019 21:08:06
Eccentricity: 0.0008650
inclination: 82.4679°
perigee height: 492 km
apogee height: 504 km
right ascension of ascending node: 50.9470°
argument of perigee: 100.0676°
revolutions per day: 15.22668682
mean anomaly at epoch: 260.1536°
orbit number at epoch: 4339

The dashed part of the orbit path shows where the satellite is in the earth's shadow,  

DLR